Home   Weather   Tunisia   Zarzis   Past weeks
Flag for Tunisia

Past Weather in Zarzis, Tunisia — Yesterday and Last 2 Weeks

Currently: 88 °F. Passing clouds. (Weather station: Djerba Mellita, Tunisia). See more current weather

Past Weather in Zarzis — Graph

°F

Zarzis Temperature Yesterday

Maximum temperature yesterday: 91 °F (at 11:00 am)
Minimum temperature yesterday: 77 °F (at 11:00 pm)
Average temperature yesterday: 83 °F

High & Low Weather Summary for the Past Weeks

 TemperatureHumidityPressure
High102 °F (Jul 25, 3:30 pm)89% (Jul 23, 1:30 am)30.07 "Hg (Jul 23, 1:30 am)
Low72 °F (Jul 24, 5:30 am)19% (Jul 24, 2:30 pm)29.77 "Hg (Jul 18, 5:00 pm)
Average83 °F60%29.94 "Hg
* Reported Jul 14 12:00 pm — Jul 29 12:30 pm, Zarzis. Weather by CustomWeather, © 2021

Note: Actual official high and low records may vary slightly from our data, if they occured in-between our weather recording intervals... More about our weather records

Zarzis Weather History for the Previous 24 Hours

Scroll right to see more
 ConditionsComfort  
Time TempWeatherWind HumidityBarometerVisibility
12:30 pm
Thu, Jul 29
88 °FPassing clouds.7 mph66%29.98 "HgN/A
12:00 pm88 °FPassing clouds.8 mph66%30.01 "HgN/A
11:30 am88 °FPassing clouds.8 mph62%30.01 "HgN/A
11:00 am86 °FPassing clouds.8 mph66%30.01 "HgN/A
10:30 am86 °FPassing clouds.8 mph66%30.01 "HgN/A
10:00 am88 °FPassing clouds.8 mph62%30.01 "HgN/A
9:30 am88 °FPassing clouds.5 mph59%29.98 "HgN/A
9:00 am88 °FSunny.1 mph59%29.98 "Hg10 mi
8:30 am86 °FSunny.2 mph62%29.98 "Hg10 mi
7:30 am81 °FSunny.No wind74%29.98 "Hg10 mi
7:00 am77 °FSunny.No wind79%29.98 "Hg10 mi
6:30 am77 °FSunny.No wind79%29.95 "Hg10 mi
6:00 am75 °FSunny.2 mph83%29.95 "Hg10 mi
5:30 am75 °FSunny.5 mph83%29.95 "Hg10 mi
5:00 am75 °FClear.2 mph83%29.95 "Hg10 mi
4:30 am75 °FClear.3 mph78%29.95 "Hg10 mi
4:00 am75 °FMild.No wind83%29.95 "HgN/A
3:30 am75 °FMild.No wind83%29.95 "HgN/A
3:00 am75 °FClear.3 mph83%29.95 "Hg10 mi
2:30 am75 °FClear.5 mph78%29.95 "Hg10 mi
1:30 am77 °FClear.1 mph79%29.95 "Hg10 mi
1:00 am77 °FClear.No wind79%29.98 "Hg10 mi
12:30 am77 °FClear.No wind79%29.98 "Hg10 mi
12:00 am77 °FClear.2 mph79%29.98 "Hg10 mi
11:30 pm
Wed, Jul 28
77 °FClear.3 mph79%29.98 "Hg10 mi
11:00 pm77 °FClear.2 mph79%29.98 "Hg10 mi
10:30 pm79 °FClear.6 mph74%29.98 "Hg10 mi
10:00 pm79 °FClear.6 mph74%29.98 "Hg10 mi
9:30 pm81 °FClear.8 mph70%29.98 "Hg10 mi
9:00 pm81 °FClear.9 mph70%29.98 "Hg10 mi
8:30 pm81 °FClear.13 mph74%29.98 "Hg10 mi
8:00 pm82 °FClear.12 mph70%29.95 "Hg10 mi
7:30 pm82 °FClear.15 mph70%29.95 "Hg10 mi
7:00 pm82 °FSunny.15 mph70%29.95 "Hg10 mi
6:30 pm84 °FSunny.16 mph66%29.95 "Hg10 mi
6:00 pm84 °FSunny.16 mph62%29.95 "Hg10 mi
5:30 pm86 °FSunny.16 mph62%29.95 "Hg10 mi
5:00 pm86 °FSunny.16 mph52%29.95 "Hg10 mi
4:30 pm88 °FSunny.16 mph55%29.95 "Hg10 mi
4:00 pm88 °FSunny.15 mph52%29.95 "Hg10 mi
3:30 pm88 °FSunny.16 mph49%29.95 "Hg10 mi
3:00 pm88 °FSunny.16 mph52%29.95 "Hg10 mi
2:30 pm88 °FSunny.17 mph52%29.95 "Hg10 mi
2:00 pm90 °FSunny.17 mph52%29.98 "Hg10 mi
1:30 pm88 °FSunny.18 mph55%29.98 "Hg10 mi
1:00 pm88 °FSunny.16 mph55%29.98 "Hg10 mi
Weather by CustomWeather, © 2021

See weather overview